[[{"header":{"parameterUnit":"m.s-1","parameterCategory":1,"la1":30.2991,"la2":30.254,"lo1":-89.0895,"lo2":-89.0444,"dy":0.0017,"dx":0.0017,"nx":28,"ny":28,"refTime":"2024-07-29T21:00:00:Z","depth":0,"parameterNumber":2,"parameterNumberName":"U-component_of_WINDS"},"data":[0,0,0,0,0,0,0,0,0,0,0,0,0,0,0,0,0,0,0,0,0,0,0,0,0,0,0,0,0,0,0,0,0,0,0,0,0,0,0,0,0,0,0,0,0,0,0,0,0,0,0,0,0,0,0,0,0,0,4.0726,4.0728,0,4.0872,4.0873,4.0875,4.0821,4.0817,4.0814,4.0811,4.0965,4.0972,4.0979,0,0,0,0,0,0,0,0,0,0,0,0,0,4.0405,4.0411,4.0726,4.0728,4.0729,4.0872,4.0874,4.0876,4.0821,4.0817,4.0813,4.081,4.0962,4.0971,4.098,0,0,0,0,0,0,0,0,0,0,0,0,0,4.0547,4.0413,4.0725,4.0719,4.072,4.0871,4.0874,4.0876,4.0822,4.0817,4.0812,4.0808,4.096,4.097,4.0981,4.1147,0,0,4.1014,4.1018,0,0,0,0,0,0,0,0,4.0539,4.0559,4.0719,4.072,4.0721,4.0823,4.0816,4.0967,4.0824,4.0784,4.0811,4.0805,4.0922,4.0935,4.0974,4.1155,4.1161,4.1015,4.1021,4.1026,4.1029,0,0,0,0,0,0,0,4.0529,4.0552,4.0784,4.0721,4.0723,4.0711,4.0726,4.0845,4.0879,4.0787,4.0783,4.0801,4.0922,4.0964,4.0977,4.1163,4.1014,4.1024,4.1031,4.1035,4.1489,4.1494,0,0,0,0,0,0,4.0518,4.0544,4.0779,4.0788,4.0616,4.0721,4.0737,4.0795,4.0878,4.0885,4.0805,4.0798,4.0948,4.0965,4.0982,4.1184,4.1026,4.1036,4.1042,4.1484,4.149,4.1496,0,0,0,0,0,0,4.0511,4.0539,4.0773,4.0665,4.0694,4.0731,4.0798,4.0801,4.0843,4.0891,4.0898,4.0841,4.0944,4.0967,4.1107,4.1188,4.1041,4.1051,4.1477,4.1486,4.1493,4.1587,0,0,0,0,0,0,4.0502,4.0537,4.06,4.0667,4.07,4.0894,4.0802,4.0807,4.0861,4.0853,4.0927,4.0935,4.0942,4.1091,4.1117,4.12,4.1059,4.147,4.1481,4.1491,4.1577,4.1598,4.1615,0,0,0,0,0,4.0491,4.0621,4.0603,4.0632,4.0779,4.0899,4.0918,4.0923,4.0868,4.0932,4.0963,4.0932,4.1175,4.1106,4.1135,4.1223,4.1465,4.1478,4.149,4.1568,4.1594,4.1615,0,0,0,0,0,0,4.0565,4.063,4.0611,4.0767,4.0827,4.0889,4.097,4.0949,4.1028,4.1017,4.1021,4.1038,4.1182,4.1216,4.1138,4.1389,4.1312,4.1331,4.1361,4.1386,4.1405,4.1394,4.1068,0,0,0,0,0,4.0599,4.0689,4.0742,4.0874,4.0906,4.0933,4.0985,4.0984,4.1047,4.1073,4.1115,4.1179,4.127,4.1329,4.1415,4.1581,4.1597,4.1656,4.1675,4.1691,4.1708,4.1799,4.1826,4.1538,4.1538,4.1537,0,0,4.0671,4.0717,4.0775,4.089,4.0937,4.1032,4.0955,4.1059,4.113,4.1089,4.1223,4.1256,4.1328,4.1482,4.1552,4.1515,4.1791,4.1707,4.1719,4.1728,4.1815,4.1842,4.1866,4.1546,4.1545,4.1543,0,0,4.085,4.0894,4.101,4.1058,4.1129,4.1147,4.1174,4.124,4.126,4.1394,4.1366,4.1451,4.1607,4.166,4.1707,4.1907,4.1882,4.1935,4.2036,4.2125,4.2147,4.2168,4.224,4.2266,4.1951,4.1951,4.1951,0,4.0931,4.1072,4.1072,4.1178,4.1231,4.1197,4.1315,4.1362,4.1459,4.1496,4.1453,4.1648,4.1694,4.186,4.1909,4.1948,4.1981,4.1927,4.2144,4.2164,4.2183,4.2252,4.2279,4.1957,4.1957,4.1956,4.1955,0,4.1168,4.1266,4.1351,4.1444,4.1506,4.1617,4.1636,4.1699,4.1692,4.1714,4.1852,4.1906,4.2002,4.2041,4.2036,4.2207,4.2182,4.2142,4.2065,4.2216,4.2282,4.2308,4.1966,4.1964,4.1962,4.1961,0,0,4.1399,4.149,4.1522,4.1563,4.164,4.1717,4.1827,4.192,4.1975,4.2042,4.2136,4.2269,4.2231,4.2285,4.2285,4.2363,4.252,4.2313,4.2315,4.2351,4.2713,4.2744,4.2774,4.2503,4.2508,4.2512,4.2707,0,4.1586,4.1778,4.1782,4.1959,4.2051,4.202,4.2116,4.2174,4.2198,4.228,4.2307,4.2401,4.2344,4.2377,4.2452,4.2484,4.2593,4.247,4.2592,4.2596,4.2576,4.2808,4.2841,4.3023,4.2733,4.2737,4.274,0,4.1829,4.1904,4.209,4.2153,4.2192,4.2278,4.2364,4.2443,4.2508,4.252,4.258,4.2569,4.2683,4.2602,4.276,4.2677,4.2727,4.275,4.2757,4.277,4.2678,4.2828,4.3081,4.3109,4.278,4.2777,4.2774,0,4.1981,4.2127,4.2258,4.2295,4.2372,4.2433,4.2469,4.2529,4.2585,4.2661,4.2697,4.2786,4.2835,4.2904,4.2917,4.2856,4.3077,4.2996,4.3091,4.3091,4.314,4.3137,4.3405,4.317,4.317,4.3169,4.3169,0,4.219,4.2305,4.2327,4.2407,4.2536,4.2539,4.2667,4.2698,4.2752,4.2839,4.2818,4.29,4.2912,4.2998,4.3009,4.3139,4.3161,4.3175,4.3177,4.3178,4.3177,4.3212,4.32,4.3177,4.3175,4.3174,4.3172,0,4.2381,4.24,4.254,4.2601,4.2619,4.2712,4.2765,4.2842,4.2863,4.2974,4.3,4.3034,4.3134,4.3153,4.3272,4.3279,4.3435,4.3423,4.3412,4.3412,4.3506,4.3497,4.3808,4.3849,4.3586,4.3588,4.359,0,4.2514,4.2602,4.2672,4.2728,4.2765,4.2856,4.2913,4.292,4.298,4.3061,4.313,4.3227,4.3305,4.3466,4.3502,4.3593,4.3584,4.3687,4.3598,4.3596,4.3587,4.3582,4.3592,4.3704,4.3707,4.3709,4.3711,0,4.2748,4.2752,4.2834,4.292,4.2988,4.3056,4.312,4.3168,4.3183,4.3252,4.3353,4.3414,4.3534,4.3631,4.3722,4.3759,4.374,4.3739,4.3766,4.3768,4.3758,4.3766,4.346,4.3732,4.373,4.3728,4.3727,4.3726,4.2915,4.2991,4.3053,4.3145,4.3194,4.3254,4.333,4.336,4.3444,4.3542,4.3541,4.3652,4.3716,4.3835,4.3879,4.3966,4.3934,4.3973,4.3983,4.3993,4.4002,4.3743,4.3983,4.3982,4.3982,4.3981,4.3981,0,4.3148,4.3186,4.327,4.3361,4.3433,4.3406,4.3476,4.3539,4.3636,4.3697,4.3774,4.389,4.3985,4.4028,4.4121,4.4183,4.4176,4.4208,4.4204,4.4213,4.4025,4.3993,4.4212,4.4212,4.4212,4.4212,4.4212,4.4212,4.3279,4.3407,4.342,4.3573,4.361,4.3717,4.376,4.3816,4.3865,4.3995,4.4073,4.41,4.4154,4.4251,4.4337,4.4347,4.4383,4.4419,4.4426,4.425,4.4226,4.4204,4.4174,4.4427,4.4427,4.4606,4.4608,4.4609]},{"header":{"parameterUnit":"m.s-1","parameterCategory":1,"la1":30.2991,"la2":30.254,"lo1":-89.0895,"lo2":-89.0444,"dy":0.0017,"dx":0.0017,"nx":28,"ny":28,"refTime":"2024-07-29T21:00:00:Z","depth":0,"parameterNumber":3,"parameterNumberName":"V-component_of_WINDS"},"data":[0,0,0,0,0,0,0,0,0,0,0,0,0,0,0,0,0,0,0,0,0,0,0,0,0,0,0,0,0,0,0,0,0,0,0,0,0,0,0,0,0,0,0,0,0,0,0,0,0,0,0,0,0,0,0,0,0,0,-1.5988,-1.5988,0,-1.6034,-1.6035,-1.6035,-1.6035,-1.6034,-1.6033,-1.6033,-1.608,-1.6082,-1.6084,0,0,0,0,0,0,0,0,0,0,0,0,0,-1.5899,-1.5901,-1.5988,-1.5988,-1.5989,-1.6034,-1.6035,-1.6035,-1.6035,-1.6034,-1.6033,-1.6033,-1.6079,-1.6082,-1.6084,0,0,0,0,0,0,0,0,0,0,0,0,0,-1.5941,-1.5901,-1.5988,-1.5994,-1.5995,-1.6034,-1.6035,-1.6036,-1.6035,-1.6034,-1.6033,-1.6032,-1.6079,-1.6081,-1.6084,-1.612,0,0,-1.6092,-1.6094,0,0,0,0,0,0,0,0,-1.5938,-1.5944,-1.5993,-1.5994,-1.5995,-1.6028,-1.6021,-1.6064,-1.6035,-1.602,-1.6033,-1.6032,-1.6063,-1.6067,-1.6078,-1.6122,-1.6124,-1.6093,-1.6094,-1.6096,-1.6096,0,0,0,0,0,0,0,-1.5935,-1.5942,-1.6006,-1.5993,-1.5995,-1.5995,-1.6,-1.6029,-1.6046,-1.6021,-1.6021,-1.6027,-1.6064,-1.6075,-1.6079,-1.6124,-1.6093,-1.6095,-1.6097,-1.6098,-1.62,-1.6201,0,0,0,0,0,0,-1.5931,-1.5939,-1.6005,-1.6008,-1.5964,-1.5997,-1.6003,-1.6018,-1.6046,-1.6049,-1.6027,-1.6027,-1.6071,-1.6076,-1.6081,-1.6124,-1.6096,-1.6098,-1.61,-1.6199,-1.62,-1.6201,0,0,0,0,0,0,-1.5929,-1.5937,-1.6003,-1.5974,-1.5982,-1.6,-1.6017,-1.602,-1.6031,-1.6051,-1.6054,-1.6036,-1.6071,-1.6077,-1.611,-1.6126,-1.6099,-1.6102,-1.6198,-1.6199,-1.6201,-1.6211,0,0,0,0,0,0,-1.5927,-1.5936,-1.595,-1.5974,-1.5984,-1.6031,-1.6018,-1.6021,-1.6036,-1.6035,-1.606,-1.6063,-1.607,-1.6106,-1.6113,-1.6129,-1.6104,-1.6196,-1.6198,-1.62,-1.6209,-1.6213,-1.6216,0,0,0,0,0,-1.5923,-1.5951,-1.595,-1.5958,-1.6001,-1.6032,-1.6038,-1.6046,-1.6037,-1.6051,-1.6064,-1.6062,-1.6123,-1.6109,-1.6117,-1.6134,-1.6195,-1.6198,-1.62,-1.6208,-1.6212,-1.6216,0,0,0,0,0,0,-1.5927,-1.5954,-1.5954,-1.599,-1.6009,-1.6032,-1.6049,-1.605,-1.6072,-1.607,-1.608,-1.6085,-1.6118,-1.613,-1.6114,-1.617,-1.6158,-1.6162,-1.6161,-1.6165,-1.6169,-1.6165,-1.6106,0,0,0,0,0,-1.5933,-1.5956,-1.5978,-1.6007,-1.6017,-1.6032,-1.6045,-1.605,-1.607,-1.6078,-1.6093,-1.6113,-1.6136,-1.6152,-1.6175,-1.6211,-1.6217,-1.6227,-1.623,-1.6233,-1.6236,-1.6256,-1.6261,-1.6209,-1.6209,-1.6209,0,0,-1.5943,-1.5961,-1.5974,-1.6008,-1.6024,-1.6047,-1.6038,-1.6064,-1.6081,-1.6082,-1.6114,-1.6126,-1.6149,-1.6184,-1.62,-1.6194,-1.6252,-1.6236,-1.6238,-1.6239,-1.6259,-1.6264,-1.6269,-1.6211,-1.6211,-1.621,0,0,-1.5975,-1.599,-1.6016,-1.6032,-1.6056,-1.6065,-1.6072,-1.6095,-1.6103,-1.6136,-1.6137,-1.6158,-1.6199,-1.6215,-1.6228,-1.6267,-1.6266,-1.6274,-1.629,-1.631,-1.6314,-1.6318,-1.6331,-1.6336,-1.6277,-1.6277,-1.6277,0,-1.5985,-1.6021,-1.603,-1.6056,-1.607,-1.6073,-1.6099,-1.6114,-1.6144,-1.6154,-1.6148,-1.6199,-1.6214,-1.6253,-1.6263,-1.6274,-1.6281,-1.6271,-1.6313,-1.6317,-1.632,-1.6333,-1.6338,-1.6278,-1.6278,-1.6278,-1.6278,0,-1.6032,-1.6057,-1.6075,-1.6104,-1.6121,-1.6147,-1.6161,-1.6177,-1.6181,-1.6191,-1.6225,-1.6243,-1.627,-1.628,-1.6284,-1.632,-1.6315,-1.6311,-1.6299,-1.6326,-1.6338,-1.6343,-1.6279,-1.6279,-1.6279,-1.6279,0,0,-1.6066,-1.61,-1.6107,-1.612,-1.6147,-1.6166,-1.6193,-1.6219,-1.6233,-1.6254,-1.6276,-1.6311,-1.6307,-1.6322,-1.6328,-1.6346,-1.6375,-1.6339,-1.634,-1.6345,-1.6416,-1.6418,-1.6424,-1.6375,-1.6376,-1.6377,-1.6414,0,-1.61,-1.6147,-1.6156,-1.6197,-1.622,-1.6223,-1.6246,-1.6265,-1.6276,-1.6298,-1.631,-1.6334,-1.6327,-1.6337,-1.6354,-1.6368,-1.6389,-1.6365,-1.6396,-1.6397,-1.6389,-1.643,-1.6433,-1.6467,-1.6419,-1.6419,-1.642,0,-1.6145,-1.6167,-1.621,-1.6234,-1.6244,-1.6265,-1.629,-1.6311,-1.6332,-1.6339,-1.6357,-1.6361,-1.6389,-1.6376,-1.6415,-1.6398,-1.6412,-1.642,-1.6422,-1.6424,-1.6409,-1.6434,-1.6478,-1.6483,-1.6428,-1.6427,-1.6427,0,-1.6165,-1.6206,-1.6237,-1.6248,-1.6277,-1.6291,-1.6304,-1.6325,-1.634,-1.6363,-1.6373,-1.6398,-1.6412,-1.6431,-1.6442,-1.6432,-1.648,-1.6468,-1.6486,-1.6486,-1.6495,-1.6495,-1.6542,-1.6505,-1.6505,-1.6505,-1.6505,0,-1.6201,-1.6227,-1.6246,-1.6265,-1.6295,-1.6306,-1.6335,-1.6347,-1.6366,-1.6388,-1.6392,-1.6412,-1.6426,-1.6448,-1.6457,-1.6488,-1.6494,-1.65,-1.6502,-1.65,-1.6499,-1.6508,-1.6505,-1.6506,-1.6506,-1.6506,-1.6506,0,-1.6228,-1.6242,-1.6276,-1.6301,-1.6307,-1.6328,-1.6349,-1.6368,-1.638,-1.6407,-1.6414,-1.6432,-1.6459,-1.6472,-1.6505,-1.6511,-1.6545,-1.6546,-1.6538,-1.6538,-1.6556,-1.6554,-1.661,-1.6618,-1.6576,-1.6577,-1.6577,0,-1.625,-1.627,-1.6297,-1.6312,-1.6325,-1.6349,-1.6365,-1.6377,-1.6394,-1.642,-1.6436,-1.6463,-1.6485,-1.6527,-1.6543,-1.6569,-1.657,-1.6588,-1.6574,-1.657,-1.657,-1.6568,-1.657,-1.659,-1.659,-1.6591,-1.6591,0,-1.6287,-1.6293,-1.6316,-1.6342,-1.6361,-1.6381,-1.6401,-1.6413,-1.6429,-1.6447,-1.6474,-1.6492,-1.6526,-1.6552,-1.6579,-1.6592,-1.6594,-1.6596,-1.6601,-1.6598,-1.6592,-1.6595,-1.6544,-1.6594,-1.6594,-1.6593,-1.6593,-1.6593,-1.6312,-1.633,-1.6352,-1.6378,-1.6394,-1.6413,-1.6432,-1.6446,-1.6469,-1.6498,-1.6504,-1.6533,-1.6555,-1.6591,-1.6605,-1.6628,-1.6624,-1.6632,-1.6634,-1.6636,-1.6637,-1.6589,-1.6633,-1.6633,-1.6633,-1.6633,-1.6633,0,-1.6349,-1.6364,-1.6387,-1.6416,-1.6436,-1.6436,-1.6459,-1.6476,-1.6501,-1.6522,-1.6544,-1.6575,-1.6601,-1.662,-1.6647,-1.6661,-1.6663,-1.6668,-1.6667,-1.667,-1.6639,-1.6631,-1.6666,-1.6666,-1.6666,-1.6666,-1.6666,-1.6666,-1.6371,-1.6402,-1.641,-1.645,-1.6464,-1.6493,-1.6506,-1.6523,-1.654,-1.6575,-1.6597,-1.6609,-1.6629,-1.6657,-1.6681,-1.6686,-1.6695,-1.67,-1.6705,-1.6675,-1.6672,-1.6668,-1.6661,-1.6702,-1.6702,-1.6734,-1.6734,-1.6734]}]]